Location: Great Falls
(47.5000°N, 111.3000°W)
Time: 20:11:41
(UTC-06:00)

ARIANE 6 FM1 Upper Stage - Visible Passes

Search period start: 12 March 2026 00:00
Search period end: 22 March 2026 00:00
Orbit: 523 x 607 km, 62.0° (Epoch: 12 March)

Date Brightness Start Highest point End Pass type
(mag) Time Alt. Az. Time Alt. Az. Time Alt. Az.
12 Mar 5.2 04:46:00 15° ESE 04:46:03 15° ESE 04:48:22 10° E visible
12 Mar 2.5 06:22:01 22° SW 06:24:34 76° NW 06:28:36 10° NE visible
13 Mar 4.8 04:46:10 21° ESE 04:46:10 21° ESE 04:48:46 10° ENE visible
13 Mar 2.8 06:22:10 24° WSW 06:24:23 54° NW 06:28:21 10° NE visible
14 Mar 4.5 04:46:14 27° E 04:46:14 27° E 04:48:53 10° ENE visible
14 Mar 3.2 06:22:13 24° W 06:24:14 40° NW 06:28:03 10° NNE visible
15 Mar 4.2 04:46:12 33° E 04:46:12 33° E 04:48:51 10° NE visible
15 Mar 3.6 06:22:11 21° W 06:24:06 31° NW 06:27:43 10° NNE visible
16 Mar 4.0 04:46:05 37° ENE 04:46:05 37° ENE 04:48:42 10° NE visible
16 Mar 4.0 06:22:05 18° WNW 06:24:00 25° NNW 06:27:22 10° NNE visible
17 Mar 3.9 04:45:55 38° NE 04:45:55 38° NE 04:48:30 10° NE visible
17 Mar 4.3 06:21:54 15° WNW 06:23:55 20° NNW 06:26:59 10° NNE visible
18 Mar 3.9 04:45:41 37° NNE 04:45:41 37° NNE 04:48:14 10° NE visible
18 Mar 4.6 06:21:40 12° WNW 06:23:52 17° NNW 06:26:35 10° NNE visible
19 Mar 4.0 04:45:24 33° NNE 04:45:24 33° NNE 04:47:54 10° NE visible
19 Mar 4.8 06:21:30 10° NW 06:23:51 15° NNW 06:26:10 10° NNE visible
20 Mar 4.2 04:45:05 29° N 04:45:05 29° N 04:47:34 10° NNE visible
20 Mar 4.9 06:21:55 10° NW 06:23:49 13° NNW 06:25:44 10° NNE visible
21 Mar 4.4 04:44:43 25° N 04:44:43 25° N 04:47:11 10° NNE visible
21 Mar 5.0 06:22:21 10° NW 06:23:49 12° NNW 06:25:18 10° N visible
